Volver al catálogo

ARIANE 1 DEB

ActivoSSO
NORAD 17153·DEBRIS·🇫🇷 France

Lanzado Feb 22, 1986 desde Guiana Space Centre

Loading…

Próximos Pases (próximas 24 horas)

TLE

ActualizadoSource: Space-Track

Época: Sep 14, 2026, 10:45 UTC

1 17153U 86019AG  26257.44799963  .00001958  00000-0  34989-3 0  9993
2 17153  98.0057 259.2266 0013243 353.4232   6.6798 14.67960030 48380

Sigue ARIANE 1 DEB en tiempo real con AllMySat

Download on the App Store